When you browse on this site, cookies collect data to enhance your experience and personalize the content and advertising you see.
Visit our Privacy Policy to learn more. By continuing to use the site, you agree to this use of cookies and data.
  • In Latvia
  • List of Countries
  • For 7 days
  • Water Temperature
  • Satellite Maps
  • Weather Map
  • Weather Widgets
  • user-avatar
    Login

    Hourly Weather Permet

    Today, 22 February, Friday

    Time Temperature Precipitation Wind Pressure Humidity
    00:00 +6°C° 0 mm 1 mps 700 mmHg 74%
    01:00 +6°C° 0 mm 1 mps 700 mmHg 73%
    02:00 +6°C° 0 mm 1 mps 699 mmHg 74%
    03:00 +4°C° 0 mm 0 mps 699 mmHg 74%
    04:00 +4°C° 0 mm 0 mps 699 mmHg 75%
    05:00 +4°C° 0 mm 0 mps 698 mmHg 76%
    06:00 +4°C° 0 mm 0 mps 698 mmHg 76%
    07:00 +5°C° 0 mm 0 mps 698 mmHg 75%
    08:00 +7°C° 0 mm 1 mps 698 mmHg 67%
    09:00 +8°C° 0 mm 1 mps 698 mmHg 60%
    10:00 +9°C° 0 mm 2 mps 698 mmHg 53%
    11:00 +9°C° 0.1 mm 2 mps 697 mmHg 55%
    12:00 +9°C° 0.1 mm 2 mps 697 mmHg 58%
    13:00 +9°C° 0.1 mm 2 mps 697 mmHg 61%
    14:00 +9°C° 0.4 mm 2 mps 696 mmHg 66%
    15:00 +8°C° 0.4 mm 2 mps 696 mmHg 71%
    16:00 +7°C° 0.4 mm 2 mps 695 mmHg 76%
    17:00 +6°C° 0.1 mm 2 mps 695 mmHg 80%
    18:00 +6°C° 0.1 mm 2 mps 695 mmHg 84%
    19:00 +5°C° 0.1 mm 2 mps 694 mmHg 88%
    20:00 +4°C° 0 mm 2 mps 694 mmHg 88%
    21:00 +4°C° 0 mm 2 mps 694 mmHg 89%
    22:00 +5°C° 0 mm 1 mps 693 mmHg 89%
    23:00 +5°C° 0 mm 1 mps 693 mmHg 88%

    Tomorrow, 23 February, Saturday

    Time Temperature Precipitation Wind Pressure Humidity
    00:00 +5°C° 0 mm 1 mps 693 mmHg 87%
    01:00 +5°C° 0 mm 1 mps 692 mmHg 85%
    02:00 +4°C° 0.2 mm 2 mps 692 mmHg 85%
    03:00 +4°C° 0.2 mm 2 mps 692 mmHg 85%
    04:00 +4°C° 0.2 mm 2 mps 691 mmHg 85%
    05:00 +3°C° 0.6 mm 2 mps 692 mmHg 81%
    06:00 +1°C° 0.6 mm 3 mps 692 mmHg 78%
    07:00 0°C° 0.6 mm 3 mps 692 mmHg 75%
    08:00 -2°C° 0.2 mm 4 mps 692 mmHg 74%
    09:00 -2°C° 0.2 mm 4 mps 692 mmHg 74%
    10:00 -2°C° 0.2 mm 4 mps 693 mmHg 73%
    11:00 -2°C° 0.1 mm 5 mps 693 mmHg 70%
    12:00 -1°C° 0.1 mm 5 mps 694 mmHg 67%
    13:00 0°C° 0.1 mm 5 mps 694 mmHg 65%
    14:00 0°C° 0.1 mm 5 mps 695 mmHg 66%
    15:00 0°C° 0.1 mm 5 mps 695 mmHg 67%
    16:00 -1°C° 0.1 mm 5 mps 696 mmHg 68%
    17:00 -1°C° 0 mm 5 mps 696 mmHg 69%
    18:00 -2°C° 0 mm 4 mps 697 mmHg 71%
    19:00 -3°C° 0 mm 4 mps 697 mmHg 73%
    20:00 -3°C° 0 mm 4 mps 698 mmHg 73%
    21:00 -3°C° 0 mm 4 mps 698 mmHg 73%
    22:00 -3°C° 0 mm 4 mps 699 mmHg 73%
    23:00 -3°C° 0 mm 4 mps 699 mmHg 73%

    Day after tomorrow, 24 February, Sunday

    Time Temperature Precipitation Wind Pressure Humidity
    00:00 -4°C° 0 mm 4 mps 699 mmHg 73%
    01:00 -4°C° 0 mm 4 mps 699 mmHg 73%
    02:00 -4°C° 0 mm 4 mps 699 mmHg 73%
    03:00 -4°C° 0 mm 4 mps 699 mmHg 72%
    04:00 -5°C° 0 mm 4 mps 699 mmHg 72%
    05:00 -5°C° 0 mm 4 mps 699 mmHg 71%
    06:00 -5°C° 0 mm 4 mps 700 mmHg 70%
    07:00 -5°C° 0 mm 4 mps 700 mmHg 69%
    08:00 -3°C° 0 mm 4 mps 701 mmHg 65%
    09:00 -2°C° 0 mm 4 mps 701 mmHg 62%
    10:00 0°C° 0 mm 4 mps 702 mmHg 58%
    11:00 +2°C° 0 mm 3 mps 702 mmHg 57%
    12:00 +3°C° 0 mm 3 mps 702 mmHg 55%
    13:00 +3°C° 0 mm 3 mps 702 mmHg 54%
    14:00 +3°C° 0 mm 3 mps 702 mmHg 56%
    15:00 +3°C° 0 mm 3 mps 702 mmHg 58%
    16:00 +3°C° 0 mm 3 mps 701 mmHg 59%
    17:00 +1°C° 0 mm 3 mps 702 mmHg 65%
    18:00 0°C° 0 mm 3 mps 702 mmHg 70%
    19:00 -1°C° 0 mm 3 mps 702 mmHg 75%
    20:00 -1°C° 0 mm 3 mps 702 mmHg 76%
    21:00 -2°C° 0 mm 3 mps 702 mmHg 76%
    22:00 -2°C° 0 mm 3 mps 703 mmHg 77%
    23:00 -2°C° 0 mm 3 mps 703 mmHg 76%

    25 February, Monday

    Time Temperature Precipitation Wind Pressure Humidity
    00:00 -2°C° 0 mm 3 mps 703 mmHg 75%
    01:00 -2°C° 0 mm 3 mps 703 mmHg 74%
    02:00 -2°C° 0 mm 3 mps 702 mmHg 73%
    03:00 -4°C° 0 mm 3 mps 702 mmHg 72%
    04:00 -4°C° 0 mm 3 mps 702 mmHg 71%
    05:00 -4°C° 0 mm 3 mps 702 mmHg 69%
    06:00 -4°C° 0 mm 3 mps 702 mmHg 68%
    07:00 -4°C° 0 mm 3 mps 702 mmHg 66%
    08:00 -1°C° 0 mm 3 mps 702 mmHg 61%
    09:00 0°C° 0 mm 4 mps 703 mmHg 55%
    10:00 +3°C° 0 mm 4 mps 703 mmHg 49%
    11:00 +4°C° 0 mm 4 mps 703 mmHg 46%
    12:00 +5°C° 0 mm 3 mps 702 mmHg 43%
    13:00 +7°C° 0 mm 3 mps 702 mmHg 40%
    14:00 +5°C° 0 mm 3 mps 702 mmHg 42%
    15:00 +5°C° 0 mm 3 mps 701 mmHg 44%
    16:00 +5°C° 0 mm 3 mps 701 mmHg 45%
    17:00 +3°C° 0 mm 3 mps 701 mmHg 50%
    18:00 +1°C° 0 mm 3 mps 700 mmHg 55%
    19:00 -1°C° 0 mm 3 mps 700 mmHg 60%
    20:00 -1°C° 0 mm 3 mps 700 mmHg 59%
    21:00 -2°C° 0 mm 3 mps 700 mmHg 57%
    22:00 -2°C° 0 mm 3 mps 700 mmHg 56%
    23:00 -2°C° 0 mm 3 mps 700 mmHg 57%

    26 February, Tuesday

    Time Temperature Precipitation Wind Pressure Humidity
    00:00 -2°C° 0 mm 3 mps 700 mmHg 57%
    01:00 -2°C° 0 mm 3 mps 700 mmHg 58%
    02:00 -2°C° 0 mm 3 mps 699 mmHg 59%
    03:00 -2°C° 0 mm 3 mps 699 mmHg 60%
    04:00 -2°C° 0 mm 3 mps 699 mmHg 61%
    05:00 -2°C° 0 mm 3 mps 699 mmHg 59%
    06:00 -1°C° 0 mm 3 mps 699 mmHg 57%
    07:00 -1°C° 0 mm 3 mps 699 mmHg 55%
    08:00 +2°C° 0 mm 3 mps 700 mmHg 49%
    09:00 +5°C° 0 mm 2 mps 700 mmHg 42%
    10:00 +8°C° 0 mm 2 mps 701 mmHg 35%
    11:00 +9°C° 0 mm 2 mps 701 mmHg 35%
    12:00 +10°C° 0 mm 2 mps 700 mmHg 35%
    13:00 +12°C° 0 mm 2 mps 700 mmHg 35%
    14:00 +12°C° 0 mm 2 mps 700 mmHg 39%
    15:00 +10°C° 0 mm 2 mps 700 mmHg 43%
    16:00 +10°C° 0 mm 2 mps 699 mmHg 47%
    17:00 +8°C° 0 mm 2 mps 699 mmHg 50%
    18:00 +6°C° 0 mm 2 mps 698 mmHg 54%
    19:00 +4°C° 0 mm 2 mps 698 mmHg 57%
    20:00 +4°C° 0 mm 2 mps 698 mmHg 56%
    21:00 +3°C° 0 mm 2 mps 698 mmHg 55%
    22:00 +3°C° 0 mm 2 mps 697 mmHg 54%
    23:00 +3°C° 0 mm 2 mps 697 mmHg 54%

    27 February, Wednesday

    Time Temperature Precipitation Wind Pressure Humidity
    00:00 +3°C° 0 mm 2 mps 696 mmHg 54%
    01:00 +3°C° 0 mm 2 mps 696 mmHg 54%
    02:00 +3°C° 0 mm 2 mps 696 mmHg 55%
    03:00 +3°C° 0 mm 2 mps 695 mmHg 56%
    04:00 +3°C° 0 mm 2 mps 695 mmHg 57%
    05:00 +3°C° 0 mm 2 mps 695 mmHg 57%
    06:00 +3°C° 0 mm 2 mps 694 mmHg 57%
    07:00 +3°C° 0 mm 2 mps 694 mmHg 57%
    08:00 +5°C° 0 mm 3 mps 695 mmHg 51%
    09:00 +8°C° 0 mm 3 mps 695 mmHg 44%
    10:00 +11°C° 0 mm 3 mps 696 mmHg 38%
    11:00 +11°C° 0 mm 4 mps 695 mmHg 36%
    12:00 +11°C° 0 mm 4 mps 695 mmHg 33%
    13:00 +10°C° 0 mm 5 mps 695 mmHg 31%
    14:00 +10°C° 0 mm 4 mps 695 mmHg 34%
    15:00 +8°C° 0 mm 4 mps 695 mmHg 36%
    16:00 +8°C° 0 mm 4 mps 695 mmHg 39%
    17:00 +6°C° 0 mm 4 mps 695 mmHg 46%
    18:00 +4°C° 0 mm 3 mps 695 mmHg 52%
    19:00 +2°C° 0 mm 3 mps 696 mmHg 59%
    20:00 +3°C° 0 mm 2 mps 696 mmHg 62%
    21:00 +2°C° 0 mm 2 mps 696 mmHg 64%
    22:00 +2°C° 0 mm 2 mps 696 mmHg 67%
    23:00 +1°C° 0 mm 2 mps 696 mmHg 67%
    Show more